Weather in Tyulyuk

Russia / Chelyabinsk Oblast     54°36′41″N   58°46′19″E
temp.,
°C
wind,
m/s
gust,
m/s
humid.,
%
clouds,
%
prec.,
mm/h
press.,
hPa
HPBL,
m
11 april, sun
sun1123:00+2sse2499100 0.0 1036131
02:00+2sse2499100 0.0 1035139
05:000sse239777 0.0 103694
08:00+2s2385100 0.0 103684
11:00+8s245919 0.0 1034255
14:00+13s345611 0.0 1032451
17:00+12s246618 0.0 1032428
20:00+6ssw229570 0.0 103417
12 april, mon
mon1223:00+5w1192100 0.0 103514
02:00+4w118997 0.0 103511
05:00+3w1187100 0.0 103610
08:00+6nw1178100 0.0 103633
11:00+11nnw2260100 0.0 1035392
14:00+14nne115275 0.0 10341069
17:00+13ese115949 0.0 10341049
20:00+9ese1289100 0.1 103690
13 april, tue
tue1323:00+8sse129492 0.1 1038155
02:00+6se2398100 0.0 1039429
05:00+5se2297100 0.0 1040301
08:00+5sse1289100 0.0 1040152
11:00+6sse2276100 0.0 1040315
14:00+8sse226899 0.0 1039435
17:00+9s226794 0.0 1038515
20:00+7s1183100 0.0 103715
14 april, wed
wed1423:00+5s119138 0.0 103718
02:00+4ssw119362 0.0 103612
05:00+4sw119187 0.0 103610
08:00+6wnw008393 0.0 103441
11:00+12e116411 0.0 1032559
14:00+15se11515 0.0 10301312
17:00+15sse225066 0.0 10281352
20:00+10sse217282 0.0 102818
15 april, thu
thu1523:00+8s117743 0.0 102810
02:00+6ssw11797 0.0 102710
05:00+5sw11815 0.0 102710
08:00+8sw00735 0.0 102644
11:00+14sse115411 0.0 1023635
14:00+16s22365 0.0 10211383
17:00+17ssw23305 0.0 10201795
20:00+11w22505 0.0 102012